Date,Time,Wetness (Wet Dry or Ice),Wind Speed (m/s),Temperature (C),Humidity (%),Pressure (mb),Radiation (W/m^2)
2023-01-24,05:50:00,DRY,4.27,5.37,27.0,769.00,0.0
2023-01-24,05:55:00,DRY,4.40,5.20,27.5,769.00,0.0
2023-01-24,06:00:00,DRY,4.27,5.03,27.7,769.00,0.0
2023-01-24,06:05:00,DRY,3.85,4.90,28.0,769.00,0.0
2023-01-24,06:10:00,DRY,3.83,4.80,29.0,769.00,0.0
2023-01-24,06:15:00,DRY,4.20,4.90,29.0,769.00,0.0
2023-01-24,06:20:00,DRY,3.20,4.93,28.7,769.00,0.0
2023-01-24,06:25:00,DRY,4.55,5.00,29.0,769.00,0.0
2023-01-24,06:30:00,DRY,3.30,5.03,28.7,769.00,0.0
2023-01-24,06:35:00,DRY,2.80,5.00,28.0,769.00,0.0
2023-01-24,06:40:00,DRY,3.53,4.87,28.0,769.00,0.0
2023-01-24,06:45:00,DRY,4.15,4.85,29.0,769.00,0.0
2023-01-24,06:50:00,DRY,3.63,4.70,28.3,769.00,0.0
2023-01-24,06:55:00,DRY,4.80,4.85,27.5,769.00,0.0
2023-01-24,07:00:00,DRY,3.50,4.73,28.0,769.00,0.0
2023-01-24,07:05:00,DRY,3.60,4.90,28.0,769.00,0.0
2023-01-24,07:10:00,DRY,3.73,5.03,28.0,769.00,0.0
2023-01-24,07:15:00,DRY,2.00,4.70,28.5,769.00,0.0
2023-01-24,07:20:00,DRY,3.23,4.77,28.0,769.00,0.0
2023-01-24,07:25:00,DRY,3.55,4.95,29.0,769.00,0.0
2023-01-24,07:30:00,DRY,3.80,4.97,28.7,769.00,0.0
2023-01-24,07:35:00,DRY,4.10,4.75,29.0,769.00,0.0
2023-01-24,07:40:00,DRY,4.93,4.87,29.0,769.00,0.0
2023-01-24,07:45:00,DRY,6.15,5.00,29.0,769.00,0.0
2023-01-24,07:50:00,DRY,3.23,5.30,28.3,769.00,0.0
2023-01-24,07:55:00,DRY,3.60,5.15,28.5,769.00,0.0
2023-01-24,08:00:00,DRY,4.97,5.20,28.3,769.00,0.0
2023-01-24,08:05:00,DRY,3.20,5.05,29.5,769.00,0.5
2023-01-24,08:10:00,DRY,4.13,5.00,29.0,769.00,2.7
2023-01-24,08:15:00,DRY,2.50,4.90,29.0,769.00,5.5
2023-01-24,08:20:00,DRY,3.87,5.03,29.0,769.00,9.0
2023-01-24,08:25:00,DRY,4.30,4.80,29.5,769.00,11.5
2023-01-24,08:30:00,DRY,4.93,4.90,29.3,769.00,15.0
2023-01-24,08:35:00,DRY,2.30,5.05,28.0,769.00,19.0
2023-01-24,08:40:00,DRY,3.90,5.10,28.0,769.00,48.3
2023-01-24,08:45:00,DRY,7.45,5.35,27.5,769.00,139.0
2023-01-24,08:50:00,DRY,4.73,5.23,28.0,769.00,157.3
2023-01-24,08:55:00,DRY,3.70,5.25,28.0,769.00,177.5
2023-01-24,09:00:00,DRY,2.67,5.30,27.7,769.00,197.7
2023-01-24,09:05:00,DRY,2.40,5.15,27.0,769.00,217.0
2023-01-24,09:10:00,DRY,4.33,5.23,27.0,769.00,236.7
2023-01-24,09:15:00,DRY,1.85,5.25,27.0,769.00,257.0
2023-01-24,09:20:00,DRY,5.60,5.33,27.3,769.00,276.3
2023-01-24,09:25:00,DRY,5.45,5.50,27.5,769.50,296.0
2023-01-24,09:30:00,DRY,3.53,5.60,27.3,769.33,316.0
2023-01-24,09:35:00,DRY,3.40,5.70,27.0,770.00,334.5
2023-01-24,09:40:00,DRY,3.37,5.83,26.7,770.00,353.3
2023-01-24,09:45:00,DRY,4.85,5.90,26.5,770.00,372.0
2023-01-24,09:50:00,DRY,2.07,5.90,26.3,770.00,390.3
2023-01-24,09:55:00,DRY,2.95,5.90,25.5,770.00,408.5
2023-01-24,10:00:00,DRY,4.00,5.93,25.3,770.00,426.0
2023-01-24,10:05:00,DRY,3.45,5.95,25.5,770.00,444.5
2023-01-24,10:10:00,DRY,4.63,5.97,25.7,770.00,462.0
2023-01-24,10:15:00,DRY,3.70,6.10,25.5,770.00,478.5
2023-01-24,10:20:00,DRY,2.67,6.23,24.7,770.00,495.7
2023-01-24,10:25:00,DRY,3.60,6.30,25.5,770.00,511.0
2023-01-24,10:30:00,DRY,2.67,6.40,25.7,770.00,527.0
2023-01-24,10:35:00,DRY,1.50,6.55,25.5,770.00,542.0
2023-01-24,10:40:00,DRY,3.23,6.63,25.0,770.00,556.7
2023-01-24,10:45:00,DRY,4.95,6.80,25.0,770.00,571.5
2023-01-24,10:50:00,DRY,3.13,6.80,25.3,770.00,585.0
2023-01-24,10:55:00,DRY,2.35,6.75,27.0,770.00,600.0
2023-01-24,11:00:00,DRY,3.70,6.83,25.3,770.33,613.0
2023-01-24,11:05:00,DRY,4.80,6.80,26.5,771.00,625.5
2023-01-24,11:10:00,DRY,3.23,6.87,25.7,770.67,638.0
2023-01-24,11:15:00,DRY,3.50,6.95,27.0,771.00,649.0
2023-01-24,11:20:00,DRY,2.80,7.03,25.3,770.67,661.7
2023-01-24,11:25:00,DRY,5.05,7.10,26.5,771.00,673.0
2023-01-24,11:30:00,DRY,2.10,7.03,25.7,770.67,683.3
2023-01-24,11:35:00,DRY,4.05,7.10,25.0,771.00,694.0
2023-01-24,11:40:00,DRY,3.03,7.10,26.7,771.00,703.7
2023-01-24,11:45:00,DRY,1.80,7.20,26.5,770.50,712.5
2023-01-24,11:50:00,DRY,2.20,7.23,26.0,770.33,720.7
2023-01-24,11:55:00,DRY,2.10,7.20,29.0,770.50,729.5
2023-01-24,12:00:00,DRY,3.73,7.17,27.3,770.00,737.0
2023-01-24,12:05:00,DRY,2.40,7.35,28.5,770.00,744.5
2023-01-24,12:10:00,DRY,3.13,7.43,28.3,770.00,751.7
2023-01-24,12:15:00,DRY,3.65,7.35,28.5,770.00,757.5
2023-01-24,12:20:00,DRY,3.00,7.60,27.7,770.33,763.3
2023-01-24,12:25:00,WET,2.95,7.65,32.5,770.00,767.5
2023-01-24,12:30:00,DRY,2.90,7.63,28.3,770.00,773.3
2023-01-24,12:35:00,DRY,3.45,7.60,30.5,770.00,777.0
2023-01-24,12:40:00,DRY,1.43,7.70,31.0,770.00,781.3
2023-01-24,12:45:00,DRY,2.00,7.70,30.0,770.00,784.0
2023-01-24,12:50:00,DRY,3.17,7.73,31.0,770.00,787.0
2023-01-24,12:55:00,DRY,2.40,7.75,30.0,770.00,788.5
2023-01-24,13:00:00,DRY,3.13,7.63,31.3,770.00,790.7
2023-01-24,13:05:00,DRY,1.35,7.90,35.0,770.00,792.0
2023-01-24,13:10:00,DRY,3.83,7.77,34.0,770.00,792.3
2023-01-24,13:15:00,DRY,2.25,7.75,43.5,770.00,793.0
2023-01-24,13:20:00,DRY,2.73,7.90,38.7,770.00,792.7
2023-01-24,13:25:00,DRY,2.40,8.00,32.0,770.00,792.5
2023-01-24,13:30:00,DRY,1.50,8.10,43.0,770.00,789.5
2023-01-24,13:35:00,DRY,2.20,7.70,37.0,770.00,792.0
2023-01-24,13:40:00,DRY,1.93,7.83,39.7,770.00,790.0
2023-01-24,13:45:00,DRY,3.05,7.80,47.0,770.00,786.0
2023-01-24,13:50:00,DRY,1.63,8.03,44.7,770.00,784.7
2023-01-24,13:55:00,DRY,1.90,8.10,43.5,770.00,780.5
2023-01-24,14:00:00,DRY,1.77,8.13,42.0,769.67,777.7
2023-01-24,14:05:00,DRY,1.95,8.15,44.0,770.00,773.0
2023-01-24,14:10:00,DRY,2.47,8.20,41.3,769.33,768.0
2023-01-24,14:15:00,DRY,3.60,8.35,37.0,769.00,764.0
2023-01-24,14:20:00,DRY,2.73,8.20,37.3,769.00,758.0
2023-01-24,14:25:00,DRY,1.85,8.35,39.0,769.00,751.0
2023-01-24,14:30:00,DRY,3.13,8.27,44.7,769.00,744.7
2023-01-24,14:35:00,DRY,3.50,8.30,39.5,769.00,737.5
2023-01-24,14:40:00,DRY,2.80,8.40,39.7,769.00,730.0
2023-01-24,14:45:00,DRY,3.85,8.35,36.5,769.00,721.0
2023-01-24,14:50:00,DRY,1.57,8.03,38.7,769.00,713.0
2023-01-24,14:55:00,DRY,1.95,8.35,41.0,769.00,702.0
2023-01-24,15:00:00,DRY,2.93,8.27,36.3,769.00,693.0
2023-01-24,15:05:00,DRY,2.15,8.25,37.0,769.00,683.0
2023-01-24,15:10:00,DRY,1.27,8.57,36.3,769.00,671.0
2023-01-24,15:15:00,DRY,2.75,8.80,38.0,769.00,660.0
2023-01-24,15:20:00,DRY,1.67,8.77,34.0,769.00,647.7
2023-01-24,15:25:00,DRY,3.00,8.70,35.0,769.00,635.0
2023-01-24,15:30:00,DRY,1.83,8.30,36.0,769.00,622.7
2023-01-24,15:35:00,DRY,1.20,8.50,33.5,769.00,610.0
2023-01-24,15:40:00,DRY,1.53,8.47,31.7,769.00,597.3
2023-01-24,15:45:00,DRY,0.95,8.65,35.0,769.00,582.5
2023-01-24,15:50:00,DRY,1.50,8.23,34.7,769.00,568.7
2023-01-24,15:55:00,DRY,3.15,8.55,35.0,769.00,555.0
2023-01-24,16:00:00,DRY,1.40,8.53,32.0,769.00,539.3
2023-01-24,16:05:00,DRY,1.65,8.30,33.0,769.00,525.0
2023-01-24,16:10:00,DRY,1.63,8.57,34.3,769.00,509.3
2023-01-24,16:15:00,DRY,0.80,8.25,33.5,769.00,493.0
2023-01-24,16:20:00,DRY,1.03,8.17,35.7,769.00,476.7
2023-01-24,16:25:00,DRY,2.10,8.40,39.0,769.00,459.5
2023-01-24,16:30:00,DRY,1.17,8.00,36.7,769.00,441.7
2023-01-24,16:35:00,DRY,1.40,8.20,33.5,769.00,423.5
2023-01-24,16:40:00,DRY,0.53,8.27,38.7,769.00,405.0
2023-01-24,16:45:00,DRY,1.75,8.30,36.0,769.00,388.0
2023-01-24,16:50:00,DRY,0.97,8.53,35.0,770.00,369.0
2023-01-24,16:55:00,DRY,1.25,8.90,32.0,769.50,349.5
2023-01-24,17:00:00,DRY,1.53,8.57,34.3,770.00,330.3
2023-01-24,17:05:00,DRY,1.55,8.35,32.5,770.00,314.0
2023-01-24,17:10:00,DRY,1.50,8.53,32.7,770.00,295.0
2023-01-24,17:15:00,DRY,0.45,8.45,30.0,770.00,275.0
2023-01-24,17:20:00,DRY,1.60,8.50,33.0,770.00,256.7
2023-01-24,17:25:00,DRY,1.15,8.55,30.5,770.00,237.5
2023-01-24,17:30:00,DRY,0.77,8.37,32.0,770.00,218.7
2023-01-24,17:35:00,DRY,1.80,8.35,30.0,770.00,198.0
2023-01-24,17:40:00,DRY,0.83,8.50,31.0,770.00,178.3
2023-01-24,17:45:00,DRY,1.55,8.35,30.5,770.00,159.5
2023-01-24,17:50:00,DRY,1.03,7.80,30.0,770.00,141.7
2023-01-24,17:55:00,DRY,1.40,7.75,31.0,770.00,122.5
2023-01-24,18:00:00,DRY,0.93,7.87,31.0,770.00,104.7
2023-01-24,18:05:00,DRY,0.80,7.55,30.5,770.00,85.5
2023-01-24,18:10:00,DRY,1.23,7.60,31.3,770.00,68.0
2023-01-24,18:15:00,DRY,1.50,7.50,29.0,770.00,50.5
2023-01-24,18:20:00,DRY,1.93,7.20,28.3,770.00,35.3
2023-01-24,18:25:00,DRY,0.85,7.00,30.5,770.00,20.5
2023-01-24,18:30:00,DRY,0.53,6.43,31.3,770.00,13.3
2023-01-24,18:35:00,DRY,0.80,6.45,31.5,770.00,9.5
2023-01-24,18:40:00,DRY,0.93,6.33,31.7,770.00,3.0
2023-01-24,18:45:00,DRY,0.90,6.25,32.0,770.00,0.0
2023-01-24,18:50:00,DRY,1.00,6.03,33.0,770.00,0.0
2023-01-24,18:55:00,DRY,1.65,5.95,32.5,770.00,0.0
2023-01-24,19:00:00,DRY,2.27,6.17,32.3,770.00,0.0
2023-01-24,19:05:00,DRY,1.20,6.05,33.5,770.00,0.0
2023-01-24,19:10:00,DRY,1.77,5.77,33.7,770.00,0.0
2023-01-24,19:15:00,DRY,1.45,5.70,34.0,770.00,0.0
2023-01-24,19:20:00,DRY,1.03,5.63,32.7,770.00,0.0
2023-01-24,19:25:00,DRY,0.90,5.65,33.0,770.00,0.0
2023-01-24,19:30:00,DRY,1.30,5.60,33.0,770.00,0.0
2023-01-24,19:35:00,DRY,2.10,5.75,31.0,770.00,0.0
2023-01-24,19:40:00,DRY,2.63,6.17,29.7,770.00,0.0
2023-01-24,19:45:00,DRY,2.55,6.05,30.0,770.00,0.0
2023-01-24,19:50:00,DRY,2.37,5.87,30.7,770.00,0.0
2023-01-24,19:55:00,DRY,1.00,5.90,31.0,770.00,0.0
2023-01-24,20:00:00,DRY,1.17,5.87,30.7,770.00,0.0
2023-01-24,20:05:00,DRY,0.60,5.80,31.5,770.00,0.0
2023-01-24,20:10:00,DRY,1.57,5.90,30.0,770.00,0.0
2023-01-24,20:15:00,DRY,0.60,5.80,31.5,770.00,0.0
2023-01-24,20:20:00,DRY,1.00,5.43,33.0,770.00,0.0
2023-01-24,20:25:00,DRY,1.15,5.25,34.5,770.00,0.0
2023-01-24,20:30:00,DRY,0.53,5.43,33.0,770.00,0.0
2023-01-24,20:35:00,DRY,1.80,5.20,34.0,770.00,0.0
2023-01-24,20:40:00,DRY,1.17,5.67,30.7,770.00,0.0
2023-01-24,20:45:00,DRY,0.65,5.70,30.5,770.00,0.0
2023-01-24,20:50:00,DRY,0.67,5.90,29.3,770.00,0.0
2023-01-24,20:55:00,DRY,1.00,5.95,28.5,770.00,0.0
2023-01-24,21:00:00,DRY,0.60,6.00,29.0,770.00,0.0
2023-01-24,21:05:00,DRY,1.05,6.00,28.0,770.00,0.0
2023-01-24,21:10:00,DRY,1.07,5.87,29.0,770.00,0.0
2023-01-24,21:15:00,DRY,0.90,5.60,29.5,770.00,0.0
2023-01-24,21:20:00,DRY,0.53,5.83,28.7,770.00,0.0
2023-01-24,21:25:00,DRY,0.65,5.65,29.0,770.00,0.0
2023-01-24,21:30:00,DRY,0.73,5.73,28.0,770.00,0.0
2023-01-24,21:35:00,DRY,2.10,5.95,28.0,770.00,0.0
2023-01-24,21:40:00,DRY,1.10,6.20,27.0,770.00,0.0
2023-01-24,21:45:00,DRY,1.40,6.50,25.5,771.00,0.0
2023-01-24,21:50:00,DRY,1.17,6.43,26.3,771.00,0.0
2023-01-24,21:55:00,DRY,1.40,6.35,26.0,771.00,0.0
2023-01-24,22:00:00,DRY,0.87,6.47,26.0,771.00,0.0
2023-01-24,22:05:00,DRY,1.10,6.35,26.5,771.00,0.0
2023-01-24,22:10:00,DRY,0.93,6.30,27.0,771.00,0.0
2023-01-24,22:15:00,DRY,0.35,6.20,27.0,771.00,0.0
2023-01-24,22:20:00,DRY,0.57,6.03,27.3,771.00,0.0
2023-01-24,22:25:00,DRY,0.85,5.80,28.0,771.00,0.0
2023-01-24,22:30:00,DRY,0.73,5.60,28.7,771.00,0.0
2023-01-24,22:35:00,DRY,1.75,5.80,29.0,771.00,0.0
2023-01-24,22:40:00,DRY,1.87,6.10,28.3,770.67,0.0
2023-01-24,22:45:00,DRY,1.65,6.50,28.0,771.00,0.0
2023-01-24,22:50:00,DRY,1.80,6.50,26.7,771.00,0.0
2023-01-24,22:55:00,DRY,2.05,6.70,26.0,771.00,0.0
2023-01-24,23:00:00,DRY,2.53,6.73,25.7,771.00,0.0
2023-01-24,23:05:00,DRY,1.55,6.40,26.5,771.00,0.0
2023-01-24,23:10:00,DRY,0.70,6.00,28.0,771.00,0.0
2023-01-24,23:15:00,DRY,1.15,5.90,27.0,771.00,0.0
2023-01-24,23:20:00,DRY,1.87,6.23,26.7,770.33,0.0
2023-01-24,23:25:00,DRY,2.35,6.60,25.0,771.00,0.0
2023-01-24,23:30:00,DRY,1.07,6.53,25.3,771.00,0.0
2023-01-24,23:35:00,DRY,2.30,6.80,25.0,771.00,0.0
2023-01-24,23:40:00,DRY,1.43,6.33,25.7,770.00,0.0
2023-01-24,23:45:00,DRY,1.95,6.10,26.5,770.00,0.0
2023-01-24,23:50:00,DRY,1.27,5.77,28.7,770.33,0.0
2023-01-24,23:55:00,DRY,1.40,5.70,28.0,770.50,0.0
2023-01-25,00:00:00,DRY,1.07,5.53,29.0,770.33,0.0
2023-01-25,00:05:00,DRY,1.40,5.65,28.5,770.50,0.0
2023-01-25,00:10:00,DRY,1.77,5.87,28.0,770.00,0.0
2023-01-25,00:15:00,DRY,1.95,6.05,25.5,770.00,0.0
2023-01-25,00:20:00,DRY,1.73,6.10,24.7,770.00,0.0
2023-01-25,00:25:00,DRY,2.85,6.15,23.5,770.00,0.0
2023-01-25,00:30:00,DRY,1.90,6.10,23.7,770.00,0.0
2023-01-25,00:35:00,DRY,1.15,6.15,23.5,770.00,0.0
2023-01-25,00:40:00,DRY,1.47,6.07,24.0,770.00,0.0
2023-01-25,00:45:00,DRY,1.35,6.00,25.0,770.00,0.0
2023-01-25,00:50:00,DRY,2.53,5.97,25.7,770.00,0.0
2023-01-25,00:55:00,DRY,1.05,6.00,26.0,770.00,0.0
2023-01-25,01:00:00,DRY,1.60,6.00,26.0,770.00,0.0
2023-01-25,01:05:00,DRY,1.55,5.90,26.0,770.00,0.0
2023-01-25,01:10:00,DRY,1.60,5.90,26.0,770.00,0.0
2023-01-25,01:15:00,DRY,1.80,5.95,26.0,770.00,0.0
2023-01-25,01:20:00,DRY,1.27,6.00,26.0,770.00,0.0
2023-01-25,01:25:00,DRY,1.70,5.85,25.0,770.00,0.0
2023-01-25,01:30:00,DRY,1.70,5.53,26.0,770.00,0.0
2023-01-25,01:35:00,DRY,1.20,5.70,24.5,770.00,0.0
2023-01-25,01:40:00,DRY,2.40,5.73,24.0,770.00,0.0
2023-01-25,01:45:00,DRY,1.00,5.70,23.0,770.00,0.0
2023-01-25,01:50:00,DRY,2.00,5.80,23.0,770.00,0.0
2023-01-25,01:55:00,DRY,2.90,5.50,23.0,770.00,0.0
2023-01-25,02:00:00,DRY,3.40,5.43,23.3,770.00,0.0
2023-01-25,02:05:00,DRY,1.50,5.55,23.0,770.00,0.0
2023-01-25,02:10:00,DRY,2.40,5.63,23.0,770.00,0.0
2023-01-25,02:15:00,DRY,2.15,5.55,22.5,770.00,0.0
2023-01-25,02:20:00,DRY,1.97,5.30,23.3,770.00,0.0
2023-01-25,02:25:00,DRY,0.75,5.10,23.5,770.00,0.0
2023-01-25,02:30:00,DRY,1.47,5.03,24.0,770.00,0.0
2023-01-25,02:35:00,DRY,1.55,5.10,24.0,770.00,0.0
2023-01-25,02:40:00,DRY,1.20,5.23,23.3,770.00,0.0
2023-01-25,02:45:00,DRY,1.30,5.10,24.0,770.00,0.0
2023-01-25,02:50:00,DRY,0.73,4.97,22.7,770.00,0.0
2023-01-25,02:55:00,DRY,2.45,5.05,23.5,770.00,0.0
2023-01-25,03:00:00,DRY,2.13,5.43,22.3,770.00,0.0
2023-01-25,03:05:00,DRY,2.10,5.60,21.5,770.00,0.0
2023-01-25,03:10:00,DRY,2.23,5.50,20.3,770.00,0.0
2023-01-25,03:15:00,DRY,1.95,5.60,20.5,770.00,0.0
2023-01-25,03:20:00,DRY,3.17,5.50,21.3,770.00,0.0
2023-01-25,03:25:00,DRY,3.30,5.45,23.5,770.00,0.0
2023-01-25,03:30:00,DRY,2.53,5.40,22.0,770.00,0.0
2023-01-25,03:35:00,DRY,2.10,5.40,21.0,770.00,0.0
2023-01-25,03:40:00,DRY,2.10,5.33,20.3,770.00,0.0
2023-01-25,03:45:00,DRY,3.00,5.20,22.0,770.00,0.0
2023-01-25,03:50:00,DRY,2.13,5.23,21.0,770.00,0.0
2023-01-25,03:55:00,DRY,2.50,5.25,19.5,770.00,0.0
2023-01-25,04:00:00,DRY,3.63,5.37,19.3,770.00,0.0
2023-01-25,04:05:00,DRY,3.20,5.45,17.5,770.00,0.0
2023-01-25,04:10:00,DRY,2.97,5.43,21.3,770.00,0.0
2023-01-25,04:15:00,DRY,2.40,5.35,24.0,770.00,0.0
2023-01-25,04:20:00,DRY,2.47,5.20,25.0,770.00,0.0
2023-01-25,04:25:00,DRY,1.80,5.15,25.0,770.00,0.0
2023-01-25,04:30:00,DRY,1.97,5.23,24.3,770.00,0.0
2023-01-25,04:35:00,DRY,1.80,5.30,25.0,770.00,0.0
2023-01-25,04:40:00,DRY,1.47,5.33,22.7,770.00,0.0
2023-01-25,04:45:00,DRY,1.45,5.40,22.0,770.00,0.0
2023-01-25,04:50:00,DRY,1.40,5.30,21.7,770.00,0.0
2023-01-25,04:55:00,DRY,1.10,5.25,20.0,770.00,0.0
2023-01-25,05:00:00,DRY,1.10,5.30,21.0,770.00,0.0
2023-01-25,05:05:00,DRY,1.55,5.25,21.0,770.00,0.0
2023-01-25,05:10:00,DRY,2.07,5.20,22.7,770.00,0.0
2023-01-25,05:15:00,DRY,2.10,5.00,23.0,770.00,0.0
2023-01-25,05:20:00,DRY,3.10,4.97,24.0,770.00,0.0
2023-01-25,05:25:00,DRY,3.20,5.10,25.5,769.50,0.0
2023-01-25,05:30:00,DRY,3.67,5.20,26.7,769.00,0.0
2023-01-25,05:35:00,DRY,3.00,5.30,26.0,769.00,0.0
2023-01-25,05:40:00,DRY,2.70,4.97,27.7,769.00,0.0
2023-01-25,05:45:00,DRY,2.95,4.85,28.5,769.00,0.0
2023-01-25,05:50:00,DRY,3.00,4.80,27.7,769.00,0.0
2023-01-25,05:55:00,DRY,2.70,4.95,25.5,769.00,0.0
2023-01-25,06:00:00,DRY,4.00,5.30,21.3,769.00,0.0
2023-01-25,06:05:00,DRY,2.40,5.80,19.5,769.00,0.0
2023-01-25,06:10:00,DRY,4.37,5.23,22.3,769.00,0.0
2023-01-25,06:15:00,DRY,4.00,5.00,23.0,769.00,0.0
2023-01-25,06:20:00,DRY,3.37,4.87,23.7,769.00,0.0
2023-01-25,06:25:00,DRY,2.20,4.70,26.0,770.00,0.0
2023-01-25,06:30:00,DRY,3.03,4.57,27.7,770.00,0.0
2023-01-25,06:35:00,DRY,2.10,4.30,30.5,770.00,0.0
2023-01-25,06:40:00,DRY,2.23,4.03,32.0,770.00,0.0
2023-01-25,06:45:00,DRY,1.80,4.05,31.0,770.00,0.0
2023-01-25,06:50:00,DRY,1.73,4.17,32.0,770.00,0.0
2023-01-25,06:55:00,DRY,2.15,4.10,32.0,770.00,0.0
2023-01-25,07:00:00,DRY,2.17,4.47,30.7,770.00,0.0
2023-01-25,07:05:00,DRY,2.70,4.60,30.0,770.00,0.0
2023-01-25,07:10:00,DRY,1.80,4.63,28.0,770.00,0.0
2023-01-25,07:15:00,DRY,0.65,4.70,25.0,770.00,0.0
2023-01-25,07:20:00,DRY,0.63,5.00,21.0,770.00,0.0
2023-01-25,07:25:00,DRY,0.75,4.95,18.0,770.00,0.0
2023-01-25,07:30:00,DRY,1.87,4.87,21.0,770.00,0.0
2023-01-25,07:35:00,DRY,2.70,4.70,24.5,770.00,0.0
2023-01-25,07:40:00,DRY,3.60,4.50,24.7,770.00,0.0
2023-01-25,07:45:00,DRY,4.15,4.35,25.0,770.00,0.0
2023-01-25,07:50:00,DRY,4.00,4.20,26.7,770.00,0.0
2023-01-25,07:55:00,DRY,3.30,4.10,26.0,770.00,0.0
2023-01-25,08:00:00,DRY,3.53,4.23,24.3,770.00,0.0
2023-01-25,08:05:00,DRY,2.80,4.30,24.0,770.00,0.0
2023-01-25,08:10:00,DRY,3.23,4.20,24.3,770.00,1.7
2023-01-25,08:15:00,DRY,4.05,4.00,24.0,770.00,5.0
2023-01-25,08:20:00,DRY,3.43,4.17,22.7,770.00,8.7
2023-01-25,08:25:00,DRY,3.50,4.05,22.0,770.00,11.0
2023-01-25,08:30:00,DRY,2.83,4.20,22.0,770.00,14.7
2023-01-25,08:35:00,DRY,1.95,4.30,22.0,770.00,18.5
2023-01-25,08:40:00,DRY,1.90,4.43,21.7,770.00,60.3
2023-01-25,08:45:00,DRY,1.00,4.75,18.0,770.00,143.5
2023-01-25,08:50:00,DRY,1.43,5.30,15.0,770.00,162.0
2023-01-25,08:55:00,DRY,1.35,5.90,12.0,770.00,182.0
2023-01-25,09:00:00,DRY,2.13,6.03,13.0,771.00,201.3
2023-01-25,09:05:00,DRY,1.80,5.75,12.5,771.00,221.5
2023-01-25,09:10:00,DRY,2.60,5.87,12.3,771.00,242.0
2023-01-25,09:15:00,DRY,2.40,6.00,11.5,771.00,262.0
2023-01-25,09:20:00,DRY,2.57,5.97,11.3,771.00,282.0
2023-01-25,09:25:00,DRY,2.10,5.95,12.0,771.00,301.5
2023-01-25,09:30:00,DRY,2.23,6.00,11.3,771.00,321.7
2023-01-25,09:35:00,DRY,2.80,6.20,9.5,771.00,341.5
2023-01-25,09:40:00,DRY,2.20,6.47,10.3,771.00,360.0
2023-01-25,09:45:00,DRY,2.25,6.00,12.5,771.00,379.0
2023-01-25,09:50:00,DRY,2.00,5.87,12.7,771.00,397.3
2023-01-25,09:55:00,DRY,2.30,5.90,11.5,771.00,416.0
2023-01-25,10:00:00,DRY,3.00,5.73,11.7,771.00,435.0
2023-01-25,10:05:00,DRY,1.60,5.75,10.0,771.00,452.5
2023-01-25,10:10:00,DRY,2.30,6.00,9.3,771.00,469.3
2023-01-25,10:15:00,DRY,3.10,6.35,8.0,771.00,487.5
2023-01-25,10:20:00,DRY,3.13,6.53,9.7,771.00,504.7
2023-01-25,10:25:00,DRY,2.85,6.40,10.5,771.00,520.5
2023-01-25,10:30:00,DRY,3.20,6.37,10.3,771.00,537.7
2023-01-25,10:35:00,DRY,2.60,6.40,11.0,771.00,553.0
2023-01-25,10:40:00,DRY,2.70,6.73,9.7,771.00,569.0
2023-01-25,10:45:00,DRY,2.40,7.10,10.0,771.00,583.5
2023-01-25,10:50:00,DRY,2.93,7.33,10.3,771.00,597.3
2023-01-25,10:55:00,DRY,2.60,7.25,10.5,771.00,611.0
2023-01-25,11:00:00,DRY,2.77,7.13,11.3,771.00,625.0
2023-01-25,11:05:00,DRY,3.20,7.40,11.0,771.00,639.5
2023-01-25,11:10:00,DRY,2.60,7.37,10.0,771.00,652.0
2023-01-25,11:15:00,DRY,2.85,7.55,9.5,771.00,664.5
2023-01-25,11:20:00,DRY,3.63,7.33,9.3,771.00,676.0
2023-01-25,11:25:00,DRY,3.20,7.40,11.0,771.00,688.0
2023-01-25,11:30:00,DRY,2.83,7.70,12.0,771.00,698.3
2023-01-25,11:35:00,DRY,1.65,7.75,12.0,771.00,707.5
2023-01-25,11:40:00,DRY,2.70,7.63,13.7,771.00,717.3
2023-01-25,11:45:00,DRY,2.15,7.65,14.5,771.00,726.0
2023-01-25,11:50:00,DRY,2.07,7.97,16.3,771.00,734.0
2023-01-25,11:55:00,DRY,1.05,8.40,18.5,771.00,742.0
2023-01-25,12:00:00,DRY,0.90,9.07,21.3,771.00,749.7
2023-01-25,12:05:00,DRY,0.50,10.00,18.5,771.00,756.5
2023-01-25,12:10:00,DRY,1.33,9.50,22.0,771.00,762.3
2023-01-25,12:15:00,DRY,0.65,9.55,23.5,771.00,770.0
2023-01-25,12:20:00,DRY,1.33,9.47,17.7,771.00,776.0
2023-01-25,12:25:00,DRY,1.00,9.10,22.5,771.00,780.5
2023-01-25,12:30:00,DRY,1.17,8.63,19.0,771.00,784.0
2023-01-25,12:35:00,DRY,1.80,8.35,24.0,771.00,787.5
2023-01-25,12:40:00,DRY,1.43,8.57,19.3,771.00,793.3
2023-01-25,12:45:00,DRY,1.55,8.60,18.0,771.00,798.5
2023-01-25,12:50:00,DRY,1.00,9.10,20.3,771.00,800.0
2023-01-25,12:55:00,DRY,2.10,9.10,20.0,771.00,800.0
2023-01-25,13:00:00,DRY,3.30,8.50,14.0,771.00,800.0
2023-01-25,13:05:00,DRY,2.95,8.25,15.5,771.00,800.0
2023-01-25,13:10:00,DRY,3.07,8.40,13.0,770.33,800.0
2023-01-25,13:15:00,DRY,2.45,8.50,15.0,770.00,800.0
2023-01-25,13:20:00,DRY,2.53,8.63,13.0,770.00,800.0
2023-01-25,13:25:00,DRY,2.30,8.85,24.0,770.00,800.0
2023-01-25,13:30:00,DRY,0.80,9.20,24.0,770.00,800.0
2023-01-25,13:35:00,DRY,0.50,9.60,35.0,770.00,800.0
2023-01-25,13:40:00,DRY,1.10,9.70,37.0,770.00,799.7
2023-01-25,13:45:00,DRY,1.10,9.25,30.5,770.00,798.5
2023-01-25,13:50:00,DRY,2.33,9.03,31.7,770.00,796.3
2023-01-25,13:55:00,DRY,0.90,9.00,23.5,770.00,794.0
2023-01-25,14:00:00,DRY,2.37,9.33,24.0,770.00,789.3
2023-01-25,14:05:00,DRY,1.25,9.15,30.0,770.00,786.0
2023-01-25,14:10:00,DRY,2.97,9.10,22.0,770.00,783.7
2023-01-25,14:15:00,DRY,1.55,8.90,20.5,770.00,778.0
2023-01-25,14:20:00,DRY,1.57,9.70,22.0,770.00,769.3
2023-01-25,14:25:00,DRY,1.05,9.65,28.0,770.00,763.5
2023-01-25,14:30:00,DRY,1.70,9.57,18.3,770.00,758.0
2023-01-25,14:35:00,DRY,2.70,9.35,19.5,770.00,752.5
2023-01-25,14:40:00,DRY,3.03,9.17,17.3,770.00,744.0
2023-01-25,14:45:00,DRY,0.85,9.25,23.0,770.00,734.5
2023-01-25,14:50:00,DRY,0.87,9.53,22.7,770.00,726.3
2023-01-25,14:55:00,,,,,,
2023-01-25,15:00:00,,,,,,
2023-01-25,15:05:00,,,,,,
2023-01-25,15:10:00,,,,,,
2023-01-25,15:15:00,,,,,,
2023-01-25,15:20:00,,,,,,
2023-01-25,15:25:00,,,,,,
2023-01-25,15:30:00,,,,,,
2023-01-25,15:35:00,DRY,1.40,10.30,19.0,770.00,613.5
2023-01-25,15:40:00,,,,,,
2023-01-25,15:45:00,,,,,,
2023-01-25,15:50:00,DRY,1.10,10.57,18.7,770.00,577.7
2023-01-25,15:55:00,DRY,1.45,10.90,18.5,770.00,562.5
2023-01-25,16:00:00,DRY,1.43,10.97,19.0,770.00,547.0
2023-01-25,16:05:00,DRY,1.05,10.65,19.5,770.00,532.5
2023-01-25,16:10:00,DRY,0.77,10.23,24.3,770.00,515.3
2023-01-25,16:15:00,DRY,0.95,10.05,24.0,770.00,500.5
2023-01-25,16:20:00,DRY,0.63,10.50,20.7,770.00,481.3
2023-01-25,16:25:00,DRY,1.40,10.55,21.0,770.00,462.0
2023-01-25,16:30:00,DRY,1.60,9.03,24.0,770.00,443.0
2023-01-25,16:35:00,DRY,1.55,8.95,19.5,770.00,430.5
2023-01-25,16:40:00,DRY,1.60,8.67,17.3,770.00,416.0
2023-01-25,16:45:00,DRY,0.70,8.15,20.5,770.00,397.0
2023-01-25,16:50:00,DRY,2.43,8.27,17.7,770.00,381.3
2023-01-25,16:55:00,DRY,1.65,8.35,17.0,770.00,363.5
2023-01-25,17:00:00,DRY,2.50,8.07,16.0,770.00,344.7
2023-01-25,17:05:00,DRY,2.65,7.85,16.5,770.00,326.0
2023-01-25,17:10:00,DRY,1.63,7.77,17.7,770.00,305.3
2023-01-25,17:15:00,DRY,2.30,7.80,17.0,770.00,287.0
2023-01-25,17:20:00,DRY,1.77,7.47,17.3,770.00,267.3
2023-01-25,17:25:00,DRY,1.60,7.50,15.5,770.00,248.0
2023-01-25,17:30:00,DRY,2.00,7.60,16.0,770.00,227.3
2023-01-25,17:35:00,DRY,1.40,7.65,15.5,770.00,207.5
2023-01-25,17:40:00,DRY,1.50,7.87,15.3,770.00,186.7
2023-01-25,17:45:00,DRY,0.50,8.05,15.0,770.00,166.0
2023-01-25,17:50:00,DRY,0.77,8.33,15.0,770.00,144.7
2023-01-25,17:55:00,DRY,0.75,8.70,13.5,770.00,125.5
2023-01-25,18:00:00,DRY,0.90,8.40,12.3,770.00,107.3
2023-01-25,18:05:00,DRY,0.70,8.00,13.5,770.00,89.0
2023-01-25,18:10:00,DRY,1.97,7.83,11.0,770.00,72.7
2023-01-25,18:15:00,DRY,2.00,7.50,10.0,770.50,55.5
2023-01-25,18:20:00,DRY,1.33,7.77,13.0,771.00,35.0
2023-01-25,18:25:00,DRY,1.70,8.00,15.0,771.00,18.0
2023-01-25,18:30:00,DRY,0.33,7.67,16.3,771.00,8.7
2023-01-25,18:35:00,DRY,0.30,7.50,14.5,771.00,4.0
2023-01-25,18:40:00,DRY,0.47,7.17,13.3,771.00,3.7
2023-01-25,18:45:00,DRY,1.70,7.00,14.0,771.00,0.0
2023-01-25,18:50:00,DRY,0.50,6.93,16.0,771.00,0.0
2023-01-25,18:55:00,DRY,3.25,6.90,18.0,771.00,0.0
2023-01-25,19:00:00,DRY,3.00,6.43,23.0,771.00,0.0
2023-01-25,19:05:00,DRY,1.70,6.30,18.0,771.00,0.0
2023-01-25,19:10:00,DRY,2.10,6.20,18.0,771.00,0.0
2023-01-25,19:15:00,DRY,1.85,6.40,14.0,771.00,0.0
2023-01-25,19:20:00,DRY,1.57,6.60,14.3,771.00,0.0
2023-01-25,19:25:00,DRY,0.75,6.70,14.0,771.00,0.0
2023-01-25,19:30:00,DRY,1.50,6.60,13.7,771.00,0.0
2023-01-25,19:35:00,DRY,0.90,6.50,11.0,771.00,0.0
2023-01-25,19:40:00,DRY,0.60,6.27,11.3,771.00,0.0
2023-01-25,19:45:00,DRY,0.45,6.00,13.5,771.00,0.0
2023-01-25,19:50:00,DRY,0.80,6.07,15.7,771.00,0.0
2023-01-25,19:55:00,DRY,0.55,6.20,16.5,771.00,0.0
2023-01-25,20:00:00,DRY,0.80,6.30,15.7,771.00,0.0
2023-01-25,20:05:00,DRY,1.15,6.40,16.0,771.00,0.0
2023-01-25,20:10:00,DRY,0.47,6.63,16.0,771.00,0.0
2023-01-25,20:15:00,DRY,0.35,6.35,17.0,771.00,0.0
2023-01-25,20:20:00,DRY,0.40,6.03,17.0,771.00,0.0
2023-01-25,20:25:00,DRY,0.30,5.80,18.0,771.00,0.0
2023-01-25,20:30:00,DRY,0.43,5.70,17.0,771.00,0.0
2023-01-25,20:35:00,DRY,1.00,5.70,17.0,771.00,0.0
2023-01-25,20:40:00,DRY,1.07,5.70,17.3,771.00,0.0
2023-01-25,20:45:00,DRY,0.90,5.95,16.5,771.00,0.0
2023-01-25,20:50:00,DRY,0.37,6.10,17.3,771.33,0.0
2023-01-25,20:55:00,DRY,0.70,5.95,17.0,771.00,0.0
2023-01-25,21:00:00,DRY,1.17,6.00,10.3,771.00,0.0
2023-01-25,21:05:00,DRY,1.30,6.10,8.5,772.00,0.0
2023-01-25,21:10:00,DRY,1.37,6.33,8.7,771.33,0.0